Regional Weather Roundup
Issued by NWS

Home | Current Version | Previous Version | Graphics & Text | Print | Product List | Glossary On
Versions: 1 2 3 4 5 6 7 8 9 10 11 12 13 14 15 16 17 18 19 20 21 22 23 24 25 26 27 28 29 30 31 32 33 34 35 36 37 38 39 40 41 42 43 44 45 46 47 48 49 50
000
ASUS43 KOAX 061010
RWRNE

WEATHER ROUNDUP FOR NEBRASKA
NATIONAL WEATHER SERVICE OMAHA NE
400 AM CST FRI MAR 06 2015

NOTES: SATELLITE DATA IS BEING USED TO AUGMENT CLOUD COVER ABOVE
       12000 FEET.
       "FAIR" INDICATES FEW OR NO CLOUDS BELOW 12,000 FEET WITH NO
       SIGNIFICANT WEATHER AND/OR OBSTRUCTIONS TO VISIBILITY.

  * THESE STATIONS DO NOT REPORT WEATHER SUCH AS RAIN...SNOW OR FOG.

NEZ001>004-019>022-054>056-061100-
NEBRASKA PANHANDLE

CITY           SKY/WX    TMP DP  RH WIND       PRES   REMARKS
SCOTTSBLUFF    CLOUDY    30  22  72 CALM      30.21F
ALLIANCE       MOCLDY    21  17  84 N6        30.18F WCI  13
CHADRON        CLOUDY    33  23  66 W8        30.18F WCI  26
KIMBALL        CLOUDY    28  20  72 W7        30.19F WCI  21
SIDNEY         MOCLDY    32  18  56 W12       30.21F WCI  23
$$

NEZ057>060-069>072-079>082-061100-
SOUTHWEST NEBRASKA

CITY           SKY/WX    TMP DP  RH WIND       PRES   REMARKS
NORTH PLATTE   CLEAR     15  11  83 NW6       30.21S WCI   6
IMPERIAL         N/A     27  17  66 W14       30.22F WCI  16
LEXINGTON      CLEAR     20  13  76 W9        30.21S WCI   9
MCCOOK         CLEAR     26  17  68 W13       30.23F WCI  15
OGALLALA       PTCLDY    27  21  77 W5        30.22S WCI  22
$$

NEZ005>010-023>029-035>040-094-061100-
NORTH CENTRAL NEBRASKA

CITY           SKY/WX    TMP DP  RH WIND       PRES   REMARKS
VALENTINE      CLEAR     24  19  81 W8        30.14F WCI  15
AINSWORTH      PTCLDY    26  19  76 SW10      30.13F WCI  16
BROKEN BOW     PTCLDY    26  14  60 VRB3      30.17F
O`NEILL        CLEAR     25  19  76 W6        30.13F WCI  18
ORD            CLEAR     13   6  74 NW3       30.16F
THEDFORD       PTCLDY    24  17  74 W5        30.17F WCI  18
$$

NEZ041-046>049-061>064-073>077-083>087-061100-
SOUTH CENTRAL NEBRASKA

CITY           SKY/WX    TMP DP  RH WIND       PRES   REMARKS
GRAND ISLAND   CLEAR     24  11  57 W9        30.19F WCI  14
AURORA         CLEAR     24  12  60 W9        30.18F WCI  15
HASTINGS       CLEAR     26  12  55 SW5       30.19F WCI  20
HEBRON         CLEAR     28  13  54 W6        30.22S WCI  21
HOLDREGE       CLEAR     25  13  59 W9        30.20F WCI  16
KEARNEY *      CLEAR     28  12  50 W9        30.20S WCI  20
YORK           CLEAR     21  12  68 W9        30.18F WCI  11
$$

NEZ011>018-030>034-042>045-061100-
NORTHEAST NEBRASKA

CITY           SKY/WX    TMP DP  RH WIND       PRES   REMARKS
NORFOLK        CLEAR     20   8  60 W6        30.14S WCI  12
ALBION         CLEAR     25  10  54 NW3       30.15S
BLAIR          CLEAR     24  14  66 S10       30.16F WCI  13
COLUMBUS *     CLEAR     21   5  49 SW6       30.17F WCI  14
FREMONT        CLEAR     22  15  71 S3        30.17F
TEKAMAH        CLEAR     20  10  65 S12       30.17F WCI   8
WAYNE          CLEAR     20   7  58 S6        30.14S WCI  12
$$

NEZ050>053-065>068-078-088>093-061100-
SOUTHEAST NEBRASKA

CITY           SKY/WX    TMP DP  RH WIND       PRES   REMARKS
LINCOLN        CLEAR     23  14  68 S3        30.21F
OMAHA EPPLEY   CLEAR     22  13  68 S12       30.20F WCI  10
BEATRICE       CLEAR     27  18  68 SW9       30.22S WCI  18
FALLS CITY     CLEAR     26  16  65 S14       30.24F WCI  14
NEBRASKA CITY  CLEAR     24  13  62 SW14      30.20F WCI  12
PLATTSMOUTH    PTCLDY    23  12  64 S9        30.19F WCI  13
$$

NEZ044-045-051>053-067-061100-
OMAHA AREA

CITY           SKY/WX    TMP DP  RH WIND       PRES   REMARKS
OMAHA EPPLEY   CLEAR     22  13  68 S12       30.20F WCI  10
BLAIR          CLEAR     24  14  66 S10       30.16F WCI  13
FREMONT        CLEAR     22  15  71 S3        30.17F
MILLARD        CLEAR     22  14  69 CALM      30.20F
OFFUTT AFB     CLEAR     18  12  75 SE5       30.19F WCI  11
PLATTSMOUTH    PTCLDY    23  12  64 S9        30.19F WCI  13
WAHOO          FAIR      19  12  73 S5        30.18F WCI  12
$$


USA.gov is the U.S. government's official web portal to all federal, state and local government web resources and services.